DW8913 Weather Reports


time (UTC)temp
C
wind
direction
speed
KPH
gust
KPH
rain 1hr
cm
rain 24hr
cm
rain mn
cm
humidity
%
barometer
mb
20260901134541 30 92 0.0 3.2 0.00 0.00 0.00 73 1015.7
20260901133010 30 78 0.0 6.4 0.00 0.00 0.00 75 1015.7
20260901131549 28 75 1.6 6.4 0.00 0.00 0.00 78 1015.8
20260901130017 28 158 0.0 4.8 0.00 0.00 0.00 82 1016.0
20260901124556 27 255 0.0 4.8 0.00 0.00 0.00 87 1016.1
20260901123024 26 57 0.0 1.6 0.00 0.00 0.00 91 1016.1
20260901121602 25 178 0.0 3.2 0.00 0.00 0.00 93 1016.3
20260901120027 25 159 0.0 4.8 0.00 0.00 0.00 94 1016.0
20260901114504 24 162 0.0 0.0 0.00 0.00 0.00 94 1016.2
20260901113055 24 26 0.0 0.0 0.00 0.00 0.00 94 1016.3
20260901111524 24 145 0.0 0.0 0.00 0.00 0.00 94 1016.2
20260901110107 23 122 0.0 0.0 0.00 0.00 0.00 94 1016.1
20260901104544 23 111 0.0 0.0 0.00 0.00 0.00 94 1015.8
20260901103005 23 134 0.0 3.2 0.00 0.00 0.00 93 1015.6
20260901101553 23 155 0.0 3.2 0.00 0.00 0.00 93 1015.7
20260901100021 23 162 0.0 0.0 0.00 0.00 0.00 93 1015.6
20260901094602 23 162 0.0 0.0 0.00 0.00 0.00 93 1015.7
20260901093036 23 169 0.0 0.0 0.00 0.00 0.00 93 1015.9
20260901091504 23 167 0.0 3.2 0.00 0.00 0.00 93 1015.8
20260901090043 23 158 0.0 3.2 0.00 0.00 0.00 93 1015.9
20260901084513 23 181 0.0 3.2 0.00 0.03 0.00 92 1015.9
20260901083054 23 155 0.0 3.2 0.00 0.03 0.00 92 1016.1
20260901081523 23 143 0.0 3.2 0.00 0.03 0.00 93 1016.0
20260901080106 23 158 0.0 4.8 0.00 0.03 0.00 92 1016.1
20260901074545 23 155 0.0 0.0 0.00 0.38 0.00 92 1016.2
20260901073001 23 163 0.0 0.0 0.00 0.38 0.00 92 1016.4
20260901071549 23 163 0.0 1.6 0.00 0.38 0.00 92 1016.3
20260901070015 23 152 0.0 3.2 0.00 0.38 0.00 92 1016.2
20260901064555 23 180 0.0 1.6 0.00 1.70 0.00 91 1016.4
20260901063018 23 157 0.0 4.8 0.00 1.70 0.00 91 1016.5
20260901061602 23 157 0.0 3.2 0.00 1.70 0.00 91 1016.6
20260901060027 23 156 0.0 0.0 0.00 1.70 0.00 90 1016.8
20260901054607 23 174 0.0 3.2 0.00 1.70 0.00 90 1017.1
20260901053040 23 173 0.0 1.6 0.00 1.70 0.00 90 1017.3
20260901051506 23 150 0.0 0.0 0.00 1.70 0.00 90 1017.3
20260901050043 23 154 0.0 1.6 0.00 1.70 0.00 90 1017.4
20260901044510 24 159 0.0 3.2 0.00 1.70 0.00 90 1017.4
20260901043108 24 179 0.0 4.8 0.00 1.70 0.00 90 1017.4
20260901041524 23 162 1.6 6.4 0.00 1.70 0.00 90 1017.5
20260901040137 23 187 0.0 3.2 0.00 1.70 0.00 90 1017.2
20260901034548 23 164 0.0 3.2 0.00 1.70 1.70 90 1017.2
20260901033014 23 163 0.0 4.8 0.00 1.70 1.70 89 1017.1
20260901031625 23 122 0.0 3.2 0.00 1.70 1.70 89 1017.2
20260901030043 23 156 1.6 9.7 0.00 1.70 1.70 89 1017.4
20260901024623 23 179 0.0 6.4 0.00 1.70 1.70 89 1017.5
20260901023044 23 211 0.0 4.8 0.00 1.70 1.70 89 1017.6
20260901021516 23 210 0.0 6.4 0.00 1.70 1.70 89 1017.6
20260901020057 23 173 1.6 6.4 0.00 1.70 1.70 89 1017.8
20260901014527 23 183 0.0 4.8 0.00 1.70 1.70 88 1017.7
20260901013110 23 186 3.2 6.4 0.00 1.70 1.70 88 1017.6
20260901011537 23 175 1.6 4.8 0.00 1.70 1.70 88 1017.7
20260901010008 23 192 0.0 3.2 0.00 1.70 1.70 88 1017.7
20260901004545 23 169 0.0 4.8 0.00 1.70 1.70 88 1017.4
20260901003007 23 199 1.6 4.8 0.00 1.70 1.70 87 1017.2
20260901001607 23 233 1.6 4.8 0.00 1.70 1.70 87 1017.5
20260901000030 23 146 3.2 6.4 0.00 1.70 1.70 86 1017.6
20260831234603 24 143 1.6 4.8 0.00 1.70 1.70 86 1017.6
20260831233033 24 194 3.2 6.4 0.00 1.70 1.70 85 1017.8
20260831231611 24 176 0.0 3.2 0.00 1.70 1.70 85 1018.0
20260831230040 24 141 0.0 3.2 0.00 1.70 1.70 84 1017.8
20260831224608 24 2 1.6 3.2 0.00 1.70 1.70 84 1017.9
20260831223037 24 162 0.0 3.2 0.00 1.70 1.70 84 1017.9
20260831221507 24 208 0.0 4.8 0.00 1.70 1.70 82 1018.0
20260831220046 25 39 1.6 4.8 0.00 1.70 1.70 82 1018.2
20260831214512 25 213 0.0 4.8 0.00 1.70 1.70 80 1018.2
20260831213059 25 257 1.6 9.7 0.00 1.70 1.70 80 1018.1
20260831211526 25 9 1.6 8.0 0.00 1.70 1.70 79 1018.2
20260831210128 25 21 1.6 6.4 0.00 1.70 1.70 81 1018.1
20260831204538 25 30 1.6 8.0 0.00 1.70 1.70 80 1018.1
20260831203014 25 163 3.2 9.7 0.00 1.70 1.70 80 1018.1
20260831201600 25 354 1.6 12.9 0.00 1.70 1.70 79 1018.1
20260831200024 25 248 1.6 8.0 0.00 1.70 1.70 80 1018.4
20260831194626 25 214 1.6 9.7 0.00 1.70 1.70 80 1018.3
20260831193028 26 203 1.6 6.4 0.00 1.70 1.70 77 1018.3
20260831191612 26 214 1.6 6.4 0.00 1.70 1.70 76 1018.5
20260831190047 26 198 0.0 6.4 0.00 1.70 1.70 76 1018.6
20260831184519 26 299 0.0 6.4 0.00 1.70 1.70 77 1018.5
20260831183103 26 207 0.0 4.8 0.00 1.70 1.70 76 1018.6
20260831181529 26 229 1.6 9.7 0.00 1.70 1.70 74 1018.7
20260831180112 26 149 1.6 6.4 0.00 1.70 1.70 75 1018.8
20260831174536 26 14 0.0 4.8 0.00 1.70 1.70 76 1018.9
20260831173008 26 243 1.6 6.4 0.00 1.70 1.70 77 1018.9
20260831171551 26 25 1.6 8.0 0.00 1.70 1.70 76 1018.8
20260831170024 26 219 1.6 4.8 0.00 1.70 1.70 74 1018.9
20260831164611 27 13 0.0 6.4 0.00 1.70 1.70 75 1018.9
20260831163031 26 7 1.6 4.8 0.00 1.70 1.70 76 1018.9
20260831161607 26 223 1.6 6.4 0.00 1.70 1.70 77 1019.0
20260831160037 27 242 0.0 8.0 0.00 1.70 1.70 75 1019.0
20260831154510 27 67 3.2 9.7 0.00 1.70 1.70 75 1019.0
20260831153049 26 219 1.6 8.0 0.00 1.70 1.70 78 1019.1
20260831151524 27 210 3.2 8.0 0.00 1.70 1.70 76 1019.2
20260831150109 26 218 0.0 8.0 0.00 1.70 1.70 79 1019.1
20260831144544 26 18 0.0 8.0 0.00 1.70 1.70 79 1019.2
20260831143009 25 224 1.6 6.4 0.00 1.70 1.70 81 1019.0
20260831141557 25 25 0.0 8.0 0.00 1.70 1.70 83 1019.0
20260831140020 25 220 0.0 3.2 0.00 1.70 1.70 84 1018.9